FW4804 Weather Reports


Display with metric or nautical units.
time (UTC)temp
F
wind
direction
speed
MPH
gust
MPH
rain 1hr
in
rain 24hr
in
rain mn
in
humidity
%
barometer
mb
20260507152506 69 319 2.0 5.0 0.00 0.00 0.00 44 1017.8
20260507152005 69 318 2.0 4.0 0.00 0.00 0.00 44 1017.7
20260507151505 69 332 3.0 4.0 0.00 0.00 0.00 44 1017.8
20260507151005 70 312 3.0 4.0 0.00 0.00 0.00 44 1017.8
20260507150508 69 181 2.0 4.0 0.00 0.00 0.00 45 1017.6
20260507145505 69 313 4.0 5.0 0.00 0.00 0.00 44 1017.7
20260507145005 69 287 5.0 8.0 0.00 0.00 0.00 44 1017.6
20260507144505 69 280 5.0 8.0 0.00 0.00 0.00 42 1017.7
20260507143505 70 213 2.0 4.0 0.00 0.00 0.00 43 1017.8
20260507143005 71 232 2.0 3.0 0.00 0.00 0.00 41 1017.8
20260507142505 71 258 2.0 4.0 0.00 0.00 0.00 41 1017.6
20260507142005 72 300 2.0 4.0 0.00 0.00 0.00 41 1017.6
20260507141507 73 335 2.0 4.0 0.00 0.00 0.00 38 1017.6
20260507141021 72 10 3.0 4.0 0.00 0.00 0.00 36 1017.3
20260507140509 72 351 4.0 6.0 0.00 0.00 0.00 41 1017.2
20260507135508 72 142 2.0 4.0 0.00 0.00 0.00 42 1017.3
20260507135005 72 135 1.0 3.0 0.00 0.00 0.00 41 1017.5
20260507134505 73 111 1.0 3.0 0.00 0.00 0.00 35 1017.5
20260507134005 74 126 1.0 4.0 0.00 0.00 0.00 35 1017.5
20260507133507 74 154 3.0 4.0 0.00 0.00 0.00 37 1017.3
20260507133005 74 162 4.0 4.0 0.00 0.00 0.00 36 1017.2
20260507132506 75 238 3.0 4.0 0.00 0.00 0.00 37 1017.1
20260507132005 75 154 4.0 6.0 0.00 0.00 0.00 36 1017.0
20260507131505 76 146 5.0 6.0 0.00 0.00 0.00 34 1016.9
20260507131008 77 136 4.0 6.0 0.00 0.00 0.00 33 1016.7
20260507130507 78 110 4.0 6.0 0.00 0.00 0.00 33 1016.9
20260507130006 77 32 4.0 6.0 0.00 0.00 0.00 33 1016.8
20260507125005 78 31 1.0 4.0 0.00 0.00 0.00 34 1016.7
20260507124005 77 53 2.0 4.0 0.00 0.00 0.00 33 1016.7
20260507123505 77 3 3.0 4.0 0.00 0.00 0.00 30 1016.7
20260507122507 76 120 4.0 6.0 0.00 0.00 0.00 32 1017.0
20260507121505 76 293 2.0 4.0 0.00 0.00 0.00 32 1017.1
20260507121005 75 283 3.0 8.0 0.00 0.00 0.00 33 1017.4
20260507120007 74 257 3.0 8.0 0.00 0.00 0.00 33 1017.0
20260507115505 73 273 2.0 4.0 0.00 0.00 0.00 32 1017.3
20260507115005 71 258 1.0 3.0 0.00 0.00 0.00 38 1017.2
20260507114505 72 257 2.0 4.0 0.00 0.00 0.00 34 1017.0
20260507114005 72 253 2.0 4.0 0.00 0.00 0.00 32 1017.4
20260507113505 73 247 1.0 3.0 0.00 0.00 0.00 32 1017.2
20260507113005 74 286 1.0 3.0 0.00 0.00 0.00 32 1017.1
20260507112005 73 284 2.0 4.0 0.00 0.00 0.00 28 1017.2
20260507111506 73 297 1.0 4.0 0.00 0.00 0.00 30 1017.1
20260507111005 73 281 0.0 2.0 0.00 0.00 0.00 28 1017.1
20260507110505 72 278 0.0 2.0 0.00 0.00 0.00 33 1017.3
20260507110005 72 0 0.0 0.0 0.00 0.00 0.00 38 1017.4
20260507105505 72 0 0.0 0.0 0.00 0.00 0.00 42 1017.5
20260507105005 71 314 0.0 1.0 0.00 0.00 0.00 42 1017.6
20260507104506 70 249 0.0 1.0 0.00 0.00 0.00 38 1017.6
20260507104005 70 278 1.0 4.0 0.00 0.00 0.00 42 1017.7
20260507103505 69 274 3.0 4.0 0.00 0.00 0.00 41 1017.8
20260507103006 69 274 4.0 7.0 0.00 0.00 0.00 38 1017.9
20260507102505 68 290 5.0 7.0 0.00 0.00 0.00 35 1017.9
20260507102007 68 293 5.0 7.0 0.00 0.00 0.00 35 1017.8
20260507101507 68 289 4.0 7.0 0.00 0.00 0.00 35 1017.9
20260507101005 68 282 3.0 5.0 0.00 0.00 0.00 36 1017.9
20260507100508 68 279 3.0 4.0 0.00 0.00 0.00 36 1017.7
20260507100016 68 284 3.0 4.0 0.00 0.00 0.00 37 1017.9
20260507095509 69 278 2.0 4.0 0.00 0.00 0.00 33 1017.6
20260507095008 69 270 2.0 4.0 0.00 0.00 0.00 33 1017.6
20260507094506 69 279 1.0 3.0 0.00 0.00 0.00 32 1017.6
20260507093005 69 265 1.0 2.0 0.00 0.00 0.00 33 1017.4
20260507092505 69 270 0.0 2.0 0.00 0.00 0.00 34 1017.3
20260507092005 69 270 1.0 4.0 0.00 0.00 0.00 37 1017.4
20260507091005 69 253 0.0 2.0 0.00 0.00 0.00 34 1017.1
20260507090506 69 201 0.0 2.0 0.00 0.00 0.00 34 1017.2
20260507090006 68 265 0.0 1.0 0.00 0.00 0.00 39 1017.1
20260507085006 67 258 0.0 2.0 0.00 0.00 0.00 43 1017.3
20260507084505 67 0 0.0 0.0 0.00 0.00 0.00 43 1017.3
20260507084005 67 0 0.0 0.0 0.00 0.00 0.00 35 1017.4
20260507083505 66 0 0.0 0.0 0.00 0.00 0.00 46 1017.3
20260507083005 65 0 0.0 0.0 0.00 0.00 0.00 52 1017.2
20260507081505 64 0 0.0 0.0 0.00 0.00 0.00 50 1017.1
20260507081005 64 0 0.0 0.0 0.00 0.00 0.00 52 1017.2
20260507080505 64 0 0.0 0.0 0.00 0.00 0.00 47 1017.0
20260507080005 64 0 0.0 0.0 0.00 0.00 0.00 49 1017.1
20260507075505 63 0 0.0 0.0 0.00 0.00 0.00 50 1017.0
20260507075005 63 0 0.0 0.0 0.00 0.00 0.00 51 1016.9
20260507074505 63 0 0.0 0.0 0.00 0.00 0.00 50 1016.9
20260507074005 63 0 0.0 0.0 0.00 0.00 0.00 51 1016.9
20260507073505 62 0 0.0 0.0 0.00 0.00 0.00 53 1017.1
20260507073005 61 0 0.0 0.0 0.00 0.00 0.00 47 1017.3
20260507072505 61 0 0.0 0.0 0.00 0.00 0.00 53 1017.2
20260507072006 60 0 0.0 0.0 0.00 0.00 0.00 54 1017.1
20260507071507 59 0 0.0 0.0 0.00 0.00 0.00 57 1017.3
20260507071005 59 0 0.0 0.0 0.00 0.00 0.00 54 1017.3
20260507070505 59 0 0.0 0.0 0.00 0.00 0.00 51 1017.4
20260507070009 60 0 0.0 0.0 0.00 0.00 0.00 53 1017.2
20260507065505 59 0 0.0 0.0 0.00 0.00 0.00 55 1017.3
20260507065005 58 0 0.0 0.0 0.00 0.00 0.00 59 1017.2
20260507064505 57 0 0.0 0.0 0.00 0.00 0.00 63 1017.1
20260507064008 56 0 0.0 0.0 0.00 0.00 0.00 65 1017.1
20260507063505 54 0 0.0 0.0 0.00 0.00 0.00 65 1017.2
20260507063005 53 0 0.0 0.0 0.00 0.00 0.00 68 1017.4
20260507062505 52 0 0.0 0.0 0.00 0.00 0.00 72 1017.4
20260507062008 52 0 0.0 0.0 0.00 0.00 0.00 73 1017.5
20260507061505 51 0 0.0 0.0 0.00 0.00 0.00 76 1017.5
20260507061005 50 0 0.0 0.0 0.00 0.00 0.00 76 1017.6
20260507060005 50 0 0.0 0.0 0.00 0.00 0.00 79 1017.6
20260507055505 50 0 0.0 0.0 0.00 0.00 0.00 78 1017.8
20260507055005 49 0 0.0 0.0 0.00 0.00 0.00 79 1017.8
20260507054505 49 0 0.0 0.0 0.00 0.00 0.00 83 1017.7
20260507054006 49 0 0.0 0.0 0.00 0.00 0.00 84 1017.9
20260507053007 47 0 0.0 0.0 0.00 0.00 0.00 87 1017.8
20260507052505 47 0 0.0 0.0 0.00 0.00 0.00 87 1017.7
20260507052005 47 0 0.0 0.0 0.00 0.00 0.00 87 1017.8
20260507051506 46 0 0.0 0.0 0.00 0.00 0.00 88 1017.7
20260507051005 46 0 0.0 0.0 0.00 0.00 0.00 90 1017.5
20260507050506 46 0 0.0 0.0 0.00 0.00 0.00 91 1017.5
20260507050006 46 0 0.0 0.0 0.00 0.00 0.00 92 1017.6
20260507045505 45 0 0.0 0.0 0.00 0.00 0.00 96 1017.2
20260507045005 44 0 0.0 0.0 0.00 0.00 0.00 96 1017.2
20260507044507 44 0 0.0 0.0 0.00 0.00 0.00 95 1017.2
20260507044005 43 0 0.0 0.0 0.00 0.00 0.00 95 1017.3
20260507043520 43 0 0.0 0.0 0.00 0.00 0.00 95 1017.0
20260507043005 43 0 0.0 0.0 0.00 0.00 0.00 95 1017.0
20260507042008 42 248 0.0 1.0 0.00 0.00 0.00 95 1016.9
20260507041505 43 248 0.0 1.0 0.00 0.00 0.00 95 1017.1
20260507041005 43 248 0.0 1.0 0.00 0.00 0.00 96 1017.1
20260507040007 42 334 0.0 1.0 0.00 0.00 0.00 97 1017.0
20260507035505 42 328 0.0 1.0 0.00 0.00 0.00 97 1016.9
20260507035005 42 339 0.0 1.0 0.00 0.00 0.00 97 1017.1
20260507034505 42 350 0.0 1.0 0.00 0.00 0.00 96 1017.0
20260507034005 41 0 0.0 0.0 0.00 0.00 0.00 96 1017.1
20260507033508 40 0 0.0 0.0 0.00 0.00 0.00 95 1017.1
20260507032506 41 0 0.0 0.0 0.00 0.00 0.00 95 1017.2
20260507032005 41 0 0.0 0.0 0.00 0.00 0.00 96 1017.2
20260507031505 41 0 0.0 0.0 0.00 0.00 0.00 96 1017.4
20260507031005 41 0 0.0 0.0 0.00 0.00 0.00 96 1017.5
20260507030505 41 0 0.0 0.0 0.00 0.00 0.00 96 1017.6
20260507030005 41 0 0.0 0.0 0.00 0.00 0.00 96 1017.5
20260507025505 41 0 0.0 0.0 0.00 0.00 0.00 96 1017.6
20260507025006 41 0 0.0 0.0 0.00 0.00 0.00 95 1017.5
20260507024506 40 0 0.0 0.0 0.00 0.00 0.00 94 1017.5
20260507024005 40 0 0.0 0.0 0.00 0.00 0.00 94 1017.4
20260507023508 40 0 0.0 0.0 0.00 0.00 0.00 94 1017.4
20260507023006 40 0 0.0 0.0 0.00 0.00 0.00 94 1017.5
20260507022505 40 0 0.0 0.0 0.00 0.00 0.00 95 1017.4
20260507021505 41 0 0.0 0.0 0.00 0.00 0.00 96 1017.3
20260507021005 41 314 0.0 1.0 0.00 0.00 0.00 96 1017.3
20260507020505 41 314 0.0 1.0 0.00 0.00 0.00 96 1017.6
20260507020006 41 314 0.0 1.0 0.00 0.00 0.00 95 1017.5
20260507015506 40 314 0.0 1.0 0.00 0.00 0.00 94 1017.6
20260507014505 40 0 0.0 0.0 0.00 0.00 0.00 94 1017.5
20260507013505 40 0 0.0 0.0 0.00 0.00 0.00 94 1017.5
20260507013006 41 0 0.0 0.0 0.00 0.00 0.00 94 1017.5
20260507012513 41 0 0.0 0.0 0.00 0.00 0.00 95 1017.5
20260507012008 41 328 0.0 1.0 0.00 0.00 0.00 95 1017.5
20260507011505 42 328 0.0 1.0 0.00 0.00 0.00 95 1017.6
20260507011005 41 0 0.0 0.0 0.00 0.00 0.00 94 1017.3
20260507010505 40 0 0.0 0.0 0.00 0.00 0.00 93 1017.4
20260507005506 41 0 0.0 0.0 0.00 0.00 0.00 93 1017.7
20260507004506 41 0 0.0 0.0 0.00 0.00 0.00 93 1017.4
20260507004005 41 0 0.0 0.0 0.00 0.00 0.00 92 1017.5
20260507003505 41 0 0.0 0.0 0.00 0.00 0.00 92 1017.5
20260507003006 41 0 0.0 0.0 0.00 0.00 0.00 92 1017.5
20260507001505 42 0 0.0 0.0 0.00 0.00 0.00 92 1017.3
20260507000505 42 0 0.0 0.0 0.00 0.00 0.00 92 1017.5
20260507000005 42 0 0.0 0.0 0.00 0.00 0.00 92 1017.4
20260506235505 43 0 0.0 0.0 0.00 0.00 0.00 92 1017.4
20260506235005 43 0 0.0 0.0 0.00 0.00 0.00 93 1017.3
20260506234505 43 0 0.0 0.0 0.00 0.00 0.00 92 1017.4
20260506234005 42 0 0.0 0.0 0.00 0.00 0.00 92 1017.4
20260506233505 42 0 0.0 0.0 0.00 0.00 0.00 91 1017.5
20260506232006 42 0 0.0 0.0 0.00 0.00 0.00 89 1017.6
20260506231005 43 0 0.0 0.0 0.00 0.00 0.00 89 1017.9
20260506230505 44 0 0.0 0.0 0.00 0.00 0.00 90 1017.9
20260506230006 44 0 0.0 0.0 0.00 0.00 0.00 90 1017.8
20260506225505 44 1 0.0 1.0 0.00 0.00 0.00 90 1018.0
20260506225005 44 1 0.0 1.0 0.00 0.00 0.00 90 1018.1
20260506224506 44 1 0.0 1.0 0.00 0.00 0.00 90 1018.1
20260506224005 44 0 0.0 0.0 0.00 0.00 0.00 91 1018.3
20260506223007 44 0 0.0 0.0 0.00 0.00 0.00 91 1018.3
20260506222508 43 0 0.0 0.0 0.00 0.00 0.00 90 1018.3
20260506221508 44 0 0.0 0.0 0.00 0.00 0.00 89 1018.3
20260506221006 44 0 0.0 0.0 0.00 0.00 0.00 89 1018.6
20260506220506 44 0 0.0 0.0 0.00 0.00 0.00 88 1018.5
20260506220006 44 0 0.0 0.0 0.00 0.00 0.00 88 1018.3
20260506215505 44 0 0.0 0.0 0.00 0.00 0.00 88 1018.4
20260506215006 45 0 0.0 0.0 0.00 0.00 0.00 88 1018.5
20260506214505 45 0 0.0 0.0 0.00 0.00 0.00 87 1018.5
20260506214006 45 0 0.0 0.0 0.00 0.00 0.00 86 1018.5
20260506213508 45 0 0.0 0.0 0.00 0.00 0.00 86 1018.6
20260506213006 46 0 0.0 0.0 0.00 0.00 0.00 82 1018.6
20260506212505 46 0 0.0 0.0 0.00 0.00 0.00 82 1018.4
20260506212005 46 0 0.0 0.0 0.00 0.00 0.00 83 1018.4
20260506211505 46 0 0.0 0.0 0.00 0.00 0.00 83 1018.6
20260506211007 45 0 0.0 0.0 0.00 0.00 0.00 87 1018.6
20260506210504 45 0 0.0 0.0 0.00 0.00 0.00 86 1018.7
20260506210009 45 0 0.0 0.0 0.00 0.00 0.00 86 1018.6
20260506205505 46 0 0.0 0.0 0.00 0.00 0.00 80 1018.7
20260506205010 46 0 0.0 0.0 0.00 0.00 0.00 79 1018.8
20260506204505 46 0 0.0 0.0 0.00 0.00 0.00 79 1018.6
20260506204005 47 0 0.0 0.0 0.00 0.00 0.00 78 1018.5
20260506203506 47 0 0.0 0.0 0.00 0.00 0.00 77 1018.6
20260506202506 48 0 0.0 0.0 0.00 0.00 0.00 75 1018.7
20260506202020 48 0 0.0 0.0 0.00 0.00 0.00 75 1018.6
20260506201505 48 0 0.0 0.0 0.00 0.00 0.00 75 1018.7
20260506200520 49 1 0.0 1.0 0.00 0.00 0.00 75 1018.9
20260506200005 49 8 0.0 2.0 0.00 0.00 0.00 75 1018.8
20260506195508 49 8 0.0 2.0 0.00 0.00 0.00 75 1018.5
20260506194505 49 0 0.0 0.0 0.00 0.00 0.00 74 1018.5
20260506194005 50 0 0.0 0.0 0.00 0.00 0.00 74 1018.5
20260506193505 50 0 0.0 0.0 0.00 0.00 0.00 73 1018.3
20260506192505 51 0 0.0 0.0 0.00 0.00 0.00 72 1018.1
20260506192005 52 1 0.0 2.0 0.00 0.00 0.00 71 1018.2
20260506191505 52 350 0.0 2.0 0.00 0.00 0.00 71 1017.9
20260506191005 52 225 0.0 1.0 0.00 0.00 0.00 70 1017.9
20260506190507 52 222 0.0 1.0 0.00 0.00 0.00 70 1017.9
20260506190006 52 0 0.0 0.0 0.00 0.00 0.00 68 1018.0
20260506185505 53 0 0.0 0.0 0.00 0.00 0.00 68 1018.1
20260506184005 54 0 0.0 0.0 0.00 0.00 0.00 64 1017.9
20260506183505 55 0 0.0 0.0 0.00 0.00 0.00 61 1018.0
20260506183006 55 0 0.0 0.0 0.00 0.00 0.00 59 1018.0
20260506182007 57 270 1.0 3.0 0.00 0.00 0.00 55 1017.8
20260506181506 58 270 1.0 3.0 0.00 0.00 0.00 53 1017.8
20260506181005 58 270 0.0 2.0 0.00 0.00 0.00 53 1017.7
20260506175505 59 261 4.0 6.0 0.00 0.00 0.00 49 1017.3
20260506175006 59 263 4.0 5.0 0.00 0.00 0.00 49 1017.4
20260506174506 60 270 4.0 7.0 0.00 0.00 0.00 49 1017.3
20260506174006 60 275 5.0 10.0 0.00 0.00 0.00 48 1017.2
20260506173021 61 203 8.0 10.0 0.00 0.00 0.00 47 1017.1
20260506172505 61 258 7.0 11.0 0.00 0.00 0.00 47 1017.1
20260506171506 61 279 4.0 11.0 0.00 0.00 0.00 48 1016.9
20260506170505 61 266 2.0 5.0 0.00 0.00 0.00 49 1016.7
20260506170006 62 260 1.0 5.0 0.00 0.00 0.00 50 1016.7
20260506165512 62 259 1.0 4.0 0.00 0.00 0.00 50 1016.8
20260506165005 62 247 1.0 4.0 0.00 0.00 0.00 48 1016.4
20260506164505 62 236 1.0 3.0 0.00 0.00 0.00 48 1016.6
20260506164005 63 265 4.0 10.0 0.00 0.00 0.00 47 1016.7
20260506163505 63 286 5.0 10.0 0.00 0.00 0.00 46 1016.4
20260506163005 64 295 4.0 8.0 0.00 0.00 0.00 44 1016.5
20260506162505 64 270 4.0 7.0 0.00 0.00 0.00 43 1016.5
20260506161505 65 282 6.0 10.0 0.00 0.00 0.00 42 1016.6
20260506161005 66 283 6.0 8.0 0.00 0.00 0.00 42 1016.5
20260506160505 66 272 7.0 10.0 0.00 0.00 0.00 42 1016.6
20260506155005 67 273 8.0 10.0 0.00 0.00 0.00 40 1016.4
20260506154005 67 275 8.0 11.0 0.00 0.00 0.00 39 1016.4
20260506153505 68 258 7.0 11.0 0.00 0.00 0.00 39 1016.4
20260506153005 68 257 6.0 9.0 0.00 0.00 0.00 37 1016.4